Location: Estes Par
(40.3770°N, 105.5210°W)
Time: 00:38:20
(UTC-06:00)

N. Korean satellite - Pass Details

Date: 07 October 2017
Orbit: 459 x 517 km, 97.2° (Epoch: 21 October)

Event Time Altitude Azimuth Distance (km) Brightness Sun altitude
Rises 20:07:34 0° 208° (SSW) 2,575 10.5 -18.6°
Reaches altitude 10° 20:10:30 10° 235° (SW) 1,686 9.9 -19.2°
Maximum altitude 20:12:27 14° 267° (W) 1,454 10.0 -19.5°
Drops below altitude 10° 20:14:23 10° 300° (WNW) 1,675 10.3 -19.9°
Sets 20:17:17 0° 327° (NNW) 2,548 10.9 -20.4°
